Flag for Austria Weather past 2 weeks in Linz, Upper Austria, Austria

Now
34 °F

Light snow. Broken clouds.


Feels Like: 29 °F
Forecast: 27 / 38 °F
Wind: 6 mph from Southwest

Location: Linz / Hoersching-Flughafen

Current Time: Jan 26, 2015 at 2:10:25 PM

Latest Report: Jan 26, 2015 at 1:50 PM


Visibility: 5 mi

Pressure: 30.24 "Hg

Humidity: 87%

Dew point: 30 °F

Location of LinzLocation

Historic Weather in Linz — Graph

°F

Linz temperature yesterday

Maximum temperature yesterday: 36 °F (at 11:50 AM)
Minimum temperature yesterday: 32 °F (at 12:20 AM)
Average temperature yesterday: 34 °F

Past Weeks' High & Low Weather Summary

 TemperatureHumidityPressure
High48 °F (Jan 13, 2:20 PM)100% (Jan 13, 8:50 AM)30.33 "Hg (Jan 13, 8:50 AM)
Low25 °F (Jan 13, 7:20 AM)40% (Jan 13, 2:50 PM)29.71 "Hg (Jan 16, 11:20 PM)
Average35 °F85%30.01 "Hg
* Reported Jan 11 12:20 PM — Jan 26 12:50 PM, Linz, Weather by CustomWeather, © 2014

Note: Actual official high and low records may vary slightly from our data, if they occured in-between our weather recording intervals... More about our weather records

Advertising

Linz weather history for previous 24 hours

 ConditionsComfort  
Time TempWeatherWind HumidityBarometerVisibility
12:50 PM
Jan 26
34 °FLight snow. Partly sunny.6 mph87%30.27 "HgN/A
12:20 PM34 °FLight snow. Partly sunny.7 mph81%30.27 "HgN/A
11:50 AM34 °FBroken clouds.6 mph87%30.27 "HgN/A
11:20 AM32 °FLight snow. Broken clouds.5 mph87%30.30 "HgN/A
10:50 AM32 °FLight snow. Partly sunny.7 mph87%30.30 "HgN/A
10:20 AM34 °FLight snow. Broken clouds.9 mph81%30.30 "HgN/A
9:50 AM32 °FPartly sunny.9 mph87%30.30 "HgN/A
9:20 AM32 °FLight snow. Broken clouds.7 mph87%30.30 "HgN/A
8:50 AM32 °FPartly sunny.7 mph87%30.30 "HgN/A
8:20 AM32 °FPartly sunny.7 mph87%30.30 "HgN/A
7:50 AM32 °FLight snow. Partly sunny.5 mph87%30.30 "HgN/A
7:20 AM32 °FLight snow. Partly cloudy.5 mph87%30.30 "HgN/A
6:50 AM32 °FPassing clouds.6 mph87%30.30 "HgN/A
6:20 AM32 °FPassing clouds.5 mph87%30.30 "HgN/A
5:50 AM32 °FLight snow. Passing clouds.6 mph87%30.30 "HgN/A
5:20 AM32 °FLight snow. Passing clouds.12 mph87%30.30 "Hg6 mi
4:50 AM32 °FLight snow. Passing clouds.12 mph87%30.30 "HgN/A
4:20 AM32 °FLight snow. Partly cloudy.13 mph87%30.30 "HgN/A
3:50 AM32 °FLight snow. Passing clouds.12 mph87%30.30 "HgN/A
3:20 AM32 °FLight snow. Passing clouds.13 mph87%30.30 "HgN/A
2:50 AM32 °FLight snow. Passing clouds.12 mph93%30.30 "Hg4 mi
2:20 AM32 °FLight snow. Partly cloudy.7 mph93%30.30 "Hg4 mi
1:50 AM32 °FSnow. Partly cloudy.7 mph93%30.30 "HgN/A
1:20 AM34 °FLight snow. Passing clouds.8 mph87%30.30 "Hg4 mi
12:50 AM34 °FPartly cloudy.7 mph87%30.30 "HgN/A
12:20 AM34 °FPassing clouds.6 mph87%30.33 "HgN/A
11:50 PM
Jan 25
34 °FLight snow. Partly cloudy.9 mph87%30.33 "HgN/A
11:20 PM34 °FPartly cloudy.7 mph87%30.33 "HgN/A
10:50 PM34 °FPartly cloudy.6 mph87%30.33 "HgN/A
10:20 PM34 °FPartly cloudy.9 mph87%30.33 "HgN/A
9:50 PM34 °FLight snow. Partly cloudy.13 mph87%30.33 "HgN/A
9:20 PM34 °FLight snow. Partly cloudy.13 mph81%30.33 "HgN/A
8:50 PM34 °FPartly cloudy.12 mph81%30.33 "HgN/A
8:20 PM34 °FPartly cloudy.10 mph81%30.30 "HgN/A
7:50 PM34 °FPartly cloudy.9 mph81%30.30 "HgN/A
7:20 PM34 °FPartly cloudy.17 mph81%30.30 "HgN/A
6:50 PM34 °FPartly cloudy.14 mph81%30.30 "HgN/A
6:20 PM36 °FSnow flurries. Partly cloudy.16 mph75%30.30 "HgN/A
5:50 PM36 °FSnow flurries. Partly cloudy.14 mph81%30.30 "HgN/A
5:20 PM36 °FSnow flurries. Partly cloudy.13 mph81%30.30 "HgN/A
4:50 PM36 °FBroken clouds.14 mph81%30.30 "HgN/A
4:20 PM36 °FBroken clouds.15 mph81%30.27 "HgN/A
3:50 PM36 °FBroken clouds.17 mph81%30.27 "HgN/A
3:20 PM36 °FPartly sunny.17 mph81%30.27 "HgN/A
2:50 PM36 °FPartly sunny.15 mph81%30.27 "HgN/A
2:20 PM36 °FBroken clouds.14 mph81%30.24 "HgN/A
Weather by CustomWeather, © 2014

See weather overviewHow to use our weather pages